Regional Weather Roundup
Issued by NWS Upton, NY

Current Version | Previous Version | Text Only | Print | Product List | Glossary On
Versions: 1 2 3 4 5 6 7 8 9 10 11 12 13 14 15 16 17 18 19 20 21 22 23 24 25 26 27 28 29 30 31 32 33 34 35 36 37 38 39 40 41 42 43 44 45 46 47 48 49 50
000 ASUS41 KOKX 270405 RWROKX Regional Weather Roundup National Weather Service New York NY 1200 AM EDT FRI APR 27 2018 Note: "FAIR" indicates few or no clouds below 12,000 feet with no significant weather and/or obstructions to visibility. NYZ071-072-176-178-NJZ106-104-270500- New York City Metro Area CITY SKY/WX TMP DP RH WIND PRES REMARKS Central Park FAIR 59 40 49 E3 29.90R Bronx Bot Gard N/A 55 39 54 E3 29.88R Bronx Lehman C N/A 59 39 47 E3 N/A LaGuardia Arpt MOCLDY 58 41 53 E6 29.87R Queens College N/A 61 41 48 NE6 N/A Kennedy Intl FAIR 59 41 51 NE7 29.88R Breezy Point N/A 57 N/A N/A W5 N/A Brooklyn Coll N/A 61 41 48 E3 N/A Staten Island N/A 57 43 58 SW2 N/A Newark/Liberty MOCLDY 59 42 53 NE3 29.87R Teterboro FAIR 59 41 51 CALM 29.86R $$ NYZ177-179-078>081-270500- Long Island New York CITY SKY/WX TMP DP RH WIND PRES REMARKS Jones Beach N/A 52 N/A N/A S2 N/A Wantagh N/A 52 46 82 E2 N/A Hempstead N/A 59 43 55 NE1 29.90R Matinecock Pt N/A 57 N/A N/A SE5 N/A Farmingdale FAIR 52 45 77 CALM 29.88R MacArthur/ISP FAIR 51 45 79 S3 29.88R Stony Brook N/A 54 41 62 SE1 N/A Shirley FAIR 47 45 93 CALM 29.89R Mt Sinai Harb N/A N/A N/A N/A S1 N/A Westhampton FAIR 40 37 89 CALM 29.90R East Hampton FAIR 43 41 93 CALM 29.89R Southold N/A 46 43 87 S1 N/A Montauk N/A 50 46 86 SE3 29.90R $$ NYZ052-065-067-270500- Hudson Valley CITY SKY/WX TMP DP RH WIND PRES REMARKS White Plains FAIR 54 39 57 CALM 29.87R Larchmont Harb N/A 55 N/A N/A E5 N/A Croton On Huds N/A 52 N/A N/A MISG N/A Somers N/A 52 39 62 N1 N/A Brewster N/A 48 39 71 W1 N/A Newburgh CLEAR 48 43 81 CALM 29.88S Montgomery FAIR 44 40 85 CALM 29.86R Otisville N/A 45 43 93 NW1 N/A Warwick N/A 45 45 100 E1 N/A Suffern N/A 50 41 71 CALM N/A Poughkeepsie FAIR 45 40 82 CALM 29.87R Albany MOCLDY 41 37 86 CALM 29.91S $$ NJZ001-105-106-008-010-013-015-019>022-104-270500- New Jersey CITY SKY/WX TMP DP RH WIND PRES REMARKS Newark/Liberty MOCLDY 59 42 53 NE3 29.87R Teterboro FAIR 59 41 51 CALM 29.86R Caldwell FAIR 53 45 74 CALM 29.88R Somerville FAIR 48 45 89 CALM 29.86R Linden FAIR 58 42 55 CALM 29.88R Perth Amboy N/A 57 N/A N/A W5 N/A Sussex FAIR 47 43 86 CALM 29.89R Andover N/A 48 43 82 CALM 29.88R Trenton FAIR 56 43 61 SW5 29.88R Millville FAIR 52 47 83 CALM 29.88F Atlantic City FAIR 51 46 83 CALM 29.90R Wrightstown MOCLDY 52 47 82 S5 29.86 Toms River FAIR 47 44 90 CALM 29.90R Belmar FAIR 56 43 61 SW6 29.89S $$ PAZ047>061-062-071-270500- Eastern Pennsylvania CITY SKY/WX TMP DP RH WIND PRES REMARKS Philadelphia CLOUDY 57 45 64 CALM 29.89S Allentown FAIR 55 41 59 SW3 29.87S Scranton FAIR 50 40 68 E7 29.87R $$ CTZ002-004>006-009-010-012-RIZ004-006-007-MAZ004-011-015-270500- Southern New England In CT CITY SKY/WX TMP DP RH WIND PRES REMARKS Bradley Intl FAIR 50 41 71 N6 29.87S Hartford FAIR 52 41 66 N3 29.87S Danbury FAIR 46 42 86 SW3 29.88S Wtrbury/Oxford FAIR 49 39 68 N8 29.87S Norwalk Harbor N/A 50 N/A N/A S9 N/A Bridgeport FAIR 54 40 59 E3 29.87R Meriden FAIR 47 42 83 CALM 29.87S New Haven FAIR 55 41 59 N7 29.86R Chester FAIR 54 41 62 N6 29.87R Groton FAIR 53 42 66 NW6 29.86R Willimantic FAIR 54 41 61 NW5 29.88R In RI CITY SKY/WX TMP DP RH WIND PRES REMARKS Providence FAIR 55 42 61 W8 29.87R Block Island FAIR 47 44 90 SW8 29.89R Westerly FAIR 51 43 74 SW3 29.88R In MA CITY SKY/WX TMP DP RH WIND PRES REMARKS Boston FAIR 53 41 63 W12 29.84S Worcester FAIR 47 39 74 W8G22 29.85R Westfield FAIR 49 42 77 CALM 29.87S Provincetown FAIR 50 43 77 W12 29.85R Nantucket FAIR 47 45 93 W13 29.87R $$ ANZ330-335-338-340-345-350-353-355-270500- Coastal Marine Observations STATION/POSITION TIME SKY/WX TEMP WIND PRES VSBY WAVE AIR SEA DIR/SP/G HT/PER (UTC) (F) (DEG/KT/KT) (MB) (MI) (FT/S) NY Harb Entrance 0350 51 49 210/ 8/ 10 1011.8 5/10 20 S Fire Island 0350 49 45 220/ 12/ 12 1011.9 5/10 23 SSW Montauk P 0350 47 45 250/ 8/ 10 1012.4 7/11 15 E Barnegat Li 0330 47 N/A 5/10 Hudson Canyon 0350 48 45 210/ 8/ 10 1012.4 6/10 Kings Point 0342 58 49 130/ 2/ 3 1012.7 Execution Rocks NOT AVBL Western LI Sound NOT AVBL Central LI Sound 0345 51 170/ 4/ 6 N/A 1 Robbins Reef 0348 61 300/ 3/ 5 1012.0 $$ >>>>>>>>>>>>>>>>>>>>>>>>>>>> KEY <<<<<<<<<<<<<<<<<<<<<<<<<<< > < > SKY/WX - Sky Condition/Present Weather < > TMP - Temperature in Fahrenheit < > DP - Dew Point in Fahrenheit < > RH - Relative Humidity in Percent < > WIND - Direction (from) and Speed in MPH < > PRES - Mean Sea Level Pressure (inches of Hg) < > WCI - Wind Chill Index < > VSB - Visibility in Miles < > HX - Heat Index < > TC - Temperature in Celsius < > VRB - Varibale Wind Direction < > < >>>>>>>>>>>>>>>>>>>>>>>>>>>> KEY <<<<<<<<<<<<<<<<<<<<<<<<<<<

USA.gov is the U.S. government's official web portal to all federal, state and local government web resources and services.